FW3755 Weather Reports


time (UTC)temp
C
wind
direction
speed
KPH
gust
KPH
rain 1hr
cm
rain 24hr
cm
rain mn
cm
humidity
%
barometer
mb
20260507045246 12 247 0.0 0.0 0.13 0.58 0.13 85 1052.5
20260507044344 12 272 1.6 4.8 0.13 0.58 0.13 85 1052.3
20260507043345 12 346 4.8 8.0 0.15 0.58 0.10 84 1052.2
20260507042345 13 330 3.2 4.8 0.05 0.48 0.03 85 1051.9
20260507041245 13 281 3.2 4.8 0.03 0.46 0.00 84 1052.2
20260507040344 13 1 3.2 6.4 0.03 0.46 0.00 84 1051.8
20260507035349 13 344 4.8 9.7 0.05 0.46 0.46 84 1051.7
20260507034351 14 33 3.2 9.7 0.05 0.46 0.46 84 1051.6
20260507033450 14 273 3.2 4.8 0.03 0.43 0.43 85 1052.1
20260507032450 14 257 3.2 4.8 0.03 0.43 0.43 84 1051.8
20260507031549 15 285 3.2 6.4 0.03 0.43 0.43 85 1051.4
20260507031451 15 254 0.0 1.6 0.03 0.43 0.43 84 1051.3
20260507030449 15 306 6.4 9.7 0.03 0.43 0.43 84 1051.4
20260507025452 15 351 1.6 6.4 0.00 0.41 0.41 84 1051.4
20260507024451 15 277 4.8 8.0 0.00 0.41 0.41 84 1051.4
20260507023452 15 202 0.0 0.0 0.00 0.41 0.41 84 1051.2
20260507021648 16 253 4.8 8.0 0.00 0.41 0.41 84 1051.3
20260507021551 16 266 3.2 6.4 0.00 0.41 0.41 84 1051.4
20260507020552 16 260 3.2 8.0 0.00 0.41 0.41 83 1050.8
20260507013750 17 247 0.0 0.0 0.05 0.41 0.41 86 1051.3
20260507011750 17 243 3.2 6.4 0.05 0.41 0.41 85 1051.2
20260507011649 17 220 3.2 6.4 0.05 0.41 0.41 85 1051.3
20260507010748 17 247 1.6 3.2 0.05 0.41 0.41 86 1051.3
20260507005750 17 270 0.0 0.0 0.05 0.41 0.41 85 1051.0
20260507005651 17 270 0.0 0.0 0.05 0.41 0.41 85 1051.0
20260507003649 18 247 0.0 0.0 0.00 0.36 0.36 82 1050.5
20260507002650 18 247 0.0 0.0 0.00 0.36 0.36 81 1050.4
20260507002548 18 247 0.0 0.0 0.00 0.36 0.36 82 1050.4
20260507001648 18 247 0.0 0.0 0.00 0.36 0.36 81 1050.3
20260507000650 18 247 0.0 1.6 0.00 0.36 0.36 81 1050.4
20260506235650 18 180 0.0 0.0 0.00 0.36 0.36 79 1049.9
20260506234649 18 157 0.0 0.0 0.00 0.36 0.36 79 1049.9
20260506234551 18 157 0.0 0.0 0.00 0.36 0.36 80 1049.9
20260506233548 19 225 0.0 0.0 0.00 0.36 0.36 78 1049.8
20260506232633 19 247 0.0 1.6 0.00 0.36 0.36 78 1049.6
20260506231650 19 225 0.0 0.0 0.00 0.36 0.36 77 1049.7
20260506231551 19 225 0.0 0.0 0.00 0.36 0.36 78 1049.6
20260506224648 20 225 1.6 3.2 0.00 0.36 0.36 78 1049.6
20260506223651 19 247 0.0 0.0 0.00 0.36 0.36 78 1049.7
20260506222650 20 222 3.2 4.8 0.00 0.36 0.36 78 1049.7
20260506221651 20 247 0.0 3.2 0.00 0.36 0.36 77 1049.8
20260506220749 20 225 0.0 3.2 0.00 0.36 0.36 76 1049.6
20260506215751 20 225 0.0 0.0 0.00 0.36 0.36 77 1049.6
20260506213850 20 223 3.2 8.0 0.00 0.36 0.36 76 1049.5
20260506212849 20 204 4.8 6.4 0.00 0.36 0.36 76 1049.1
20260506211850 20 237 3.2 4.8 0.00 0.36 0.36 76 1049.2
20260506210748 20 242 4.8 9.7 0.00 0.36 0.36 76 1049.1
20260506205648 20 205 3.2 6.4 0.00 0.36 0.36 77 1048.9
20260506204747 19 227 4.8 6.4 0.00 0.36 0.36 76 1049.1
20260506203750 20 235 4.8 8.0 0.00 0.36 0.36 77 1049.1
20260506202849 20 228 3.2 8.0 0.00 0.36 0.36 77 1049.1
20260506202749 20 231 6.4 12.9 0.00 0.36 0.36 77 1049.1
20260506201748 19 241 4.8 6.4 0.00 0.36 0.36 77 1049.1
20260506201648 19 215 6.4 9.7 0.00 0.36 0.36 76 1049.1
20260506200648 19 212 3.2 6.4 0.00 0.36 0.36 75 1049.0
20260506195747 19 220 8.0 14.5 0.00 0.36 0.36 77 1049.1
20260506194650 19 227 6.4 9.7 0.00 0.36 0.36 76 1049.1
20260506192750 19 227 6.4 8.0 0.00 0.36 0.36 77 1049.3
20260506190749 18 205 3.2 6.4 0.00 0.36 0.36 79 1049.6
20260506184833 17 209 6.4 9.7 0.00 0.36 0.36 81 1049.8
20260506183849 17 220 8.0 11.3 0.00 0.36 0.36 82 1049.8
20260506183749 17 220 3.2 6.4 0.00 0.36 0.36 81 1049.8
20260506182749 17 207 4.8 11.3 0.00 0.36 0.36 81 1049.8
20260506181751 17 214 3.2 8.0 0.00 0.36 0.36 83 1050.0
20260506181649 17 240 4.8 8.0 0.00 0.36 0.36 82 1050.0
20260506180649 17 186 1.6 4.8 0.00 0.36 0.36 83 1050.3
20260506174649 16 236 8.0 14.5 0.00 0.36 0.36 84 1050.2
20260506174550 16 210 9.7 17.7 0.00 0.36 0.36 83 1050.2
20260506173549 16 218 4.8 8.0 0.00 0.36 0.36 84 1050.1
20260506172647 16 218 8.0 14.5 0.00 0.36 0.36 84 1050.2
20260506170649 16 218 4.8 11.3 0.00 0.36 0.36 85 1050.2
20260506164648 15 211 8.0 12.9 0.00 0.36 0.36 85 1050.4
20260506163648 15 225 4.8 6.4 0.00 0.36 0.36 86 1050.2
20260506162650 15 203 6.4 12.9 0.03 0.36 0.36 86 1050.4
20260506161650 15 201 4.8 12.9 0.03 0.36 0.36 86 1050.7
20260506160648 15 228 3.2 8.0 0.05 0.36 0.36 86 1050.7
20260506155549 15 222 8.0 14.5 0.05 0.36 0.36 87 1050.6
20260506153647 15 207 3.2 6.4 0.10 0.36 0.36 86 1050.6
20260506153549 15 222 6.4 8.0 0.10 0.36 0.36 87 1050.6
20260506152550 15 228 3.2 6.4 0.08 0.33 0.33 87 1050.9
20260506152449 15 231 3.2 6.4 0.08 0.33 0.33 86 1050.9
20260506151450 15 198 8.0 14.5 0.13 0.33 0.33 86 1051.1
20260506150450 15 200 0.0 6.4 0.13 0.30 0.30 86 1051.3
20260506145450 15 203 3.2 11.3 0.13 0.28 0.28 86 1051.2
20260506144550 15 226 6.4 8.0 0.13 0.25 0.25 86 1051.4
20260506143549 15 244 4.8 8.0 0.15 0.25 0.25 86 1051.2
20260506142550 15 145 1.6 4.8 0.18 0.25 0.25 85 1050.9
20260506140550 15 214 3.2 8.0 0.15 0.20 0.18 84 1051.3
20260506140449 15 189 3.2 14.5 0.13 0.18 0.18 85 1051.4
20260506135449 15 223 4.8 9.7 0.13 0.15 0.15 85 1051.7
20260506134536 15 214 1.6 4.8 0.10 0.13 0.13 83 1051.6
20260506133548 15 246 4.8 8.0 0.08 0.10 0.10 84 1051.5
20260506133449 15 247 3.2 4.8 0.10 0.10 0.10 83 1051.5
20260506132449 16 223 3.2 4.8 0.08 0.08 0.08 82 1051.6
20260506131449 16 179 3.2 6.4 0.05 0.05 0.05 82 1051.3
20260506130448 16 222 0.0 3.2 0.05 0.05 0.03 81 1051.1
20260506125449 16 247 0.0 3.2 0.03 0.03 0.03 81 1051.2
20260506125351 16 246 1.6 4.8 0.03 0.03 0.03 81 1051.3
20260506124352 16 216 1.6 3.2 0.03 0.03 0.03 80 1051.2
20260506123351 16 225 3.2 6.4 0.00 0.00 0.00 80 1051.4
20260506122447 16 204 6.4 19.3 0.00 0.00 0.00 78 1051.6
20260506121349 17 212 3.2 4.8 0.00 0.00 0.00 75 1051.8
20260506120347 17 212 8.0 12.9 0.00 0.00 0.00 73 1051.7
20260506115350 17 199 8.0 14.5 0.00 0.00 0.00 72 1051.5
20260506114349 17 208 8.0 11.3 0.00 0.00 0.00 73 1051.3
20260506113448 17 205 3.2 8.0 0.00 0.00 0.00 73 1051.3
20260506112449 17 226 6.4 11.3 0.00 0.00 0.00 73 1051.0
20260506111449 17 207 4.8 6.4 0.00 0.00 0.00 74 1051.0
20260506110547 17 222 0.0 3.2 0.00 0.00 0.00 73 1051.0
20260506105548 17 198 1.6 6.4 0.00 0.00 0.00 72 1050.9
20260506104549 17 218 6.4 9.7 0.00 0.00 0.00 73 1050.7
20260506103550 17 218 6.4 16.1 0.00 0.00 0.00 73 1050.7
20260506102550 17 177 1.6 6.4 0.00 0.00 0.00 73 1050.6
20260506100650 17 187 4.8 6.4 0.00 0.00 0.00 72 1050.8
20260506093548 17 226 1.6 4.8 0.00 0.00 0.00 71 1050.7
20260506092550 18 189 1.6 6.4 0.00 0.00 0.00 70 1050.6
20260506090735 18 225 0.0 4.8 0.00 0.00 0.00 68 1050.7
20260506085750 18 226 1.6 8.0 0.00 0.00 0.00 67 1051.1
20260506084847 18 281 4.8 6.4 0.00 0.00 0.00 67 1051.0
20260506083850 18 162 3.2 9.7 0.00 0.00 0.00 66 1051.0
20260506082847 18 245 4.8 9.7 0.00 0.00 0.00 64 1050.9
20260506081848 18 231 3.2 6.4 0.00 0.00 0.00 63 1050.9
20260506081748 18 248 1.6 3.2 0.00 0.00 0.00 63 1050.8
20260506080750 19 204 3.2 8.0 0.00 0.00 0.00 63 1050.8
20260506080647 19 212 4.8 11.3 0.00 0.00 0.00 63 1050.7
20260506072650 20 257 3.2 6.4 0.00 0.00 0.00 60 1051.0
20260506071648 20 93 0.0 3.2 0.00 0.00 0.00 60 1051.0
20260506070648 20 239 6.4 12.9 0.00 0.00 0.00 58 1051.0
20260506070550 20 146 1.6 6.4 0.00 0.00 0.00 57 1051.0
20260506061548 20 151 1.6 6.4 0.00 0.00 0.00 55 1051.4
20260506060648 21 165 4.8 6.4 0.00 0.00 0.00 54 1051.4